This is the latest recevied weather packets stored in our database for station/object K7KRJ-10. If no packets are shown the sender has not sent any weather packets the latest 10 day(s).
| Time | Temp. | Humidity | Pressure | Rain* | Wind** | Luminosity | Snow |
|---|---|---|---|---|---|---|---|
| 1777895266 | 22.22° C | 37% | 1008.8 hPa | 0 mm | - | 0 W/m² | - |
| 1777894364 | 22.78° C | 36% | 1009.2 hPa | 0 mm | - | 0 W/m² | - |
| 1777893460 | 22.78° C | 36% | 1009.2 hPa | 0 mm | - | 0 W/m² | - |
| 1777892555 | 22.22° C | 38% | 1009.2 hPa | 0 mm | - | 0 W/m² | - |
| 1777891652 | 21.67° C | 38% | 1009.1 hPa | 0 mm | - | 0 W/m² | - |
| 1777890749 | 22.22° C | 37% | 1009.3 hPa | 0 mm | - | 0 W/m² | - |
| 1777889849 | 22.78° C | 36% | 1009.3 hPa | 0 mm | - | 0 W/m² | - |
| 1777888948 | 22.78° C | 36% | 1009.1 hPa | 0 mm | - | 0 W/m² | - |
| 1777888044 | 23.33° C | 36% | 1009.3 hPa | 0 mm | - | 0 W/m² | - |
| 1777887138 | 23.33° C | 35% | 1009.5 hPa | 0 mm | - | 0 W/m² | - |
| 1777886235 | 23.33° C | 35% | 1009.3 hPa | 0 mm | - | 0 W/m² | - |
| 1777885334 | 23.89° C | 35% | 1008.8 hPa | 0 mm | - | 0 W/m² | - |
| 1777884430 | 23.89° C | 35% | 1008.8 hPa | 0 mm | - | 0 W/m² | - |
| 1777883527 | 24.44° C | 34% | 1008.9 hPa | 0 mm | - | 0 W/m² | - |
| 1777882622 | 24.44° C | 34% | 1008.4 hPa | 0 mm | - | 0 W/m² | - |
| 1777881717 | 24.44° C | 33% | 1008.8 hPa | 0 mm | - | 0 W/m² | - |
| 1777880815 | 25° C | 33% | 1008.8 hPa | 0 mm | - | 0 W/m² | - |
| 1777879915 | 25° C | 32% | 1009 hPa | 0 mm | - | 0 W/m² | - |
| 1777879012 | 25° C | 32% | 1009.1 hPa | 0 mm | - | 0 W/m² | - |
| 1777878108 | 25° C | 32% | 1008.7 hPa | 0 mm | - | 0 W/m² | - |
| 1777877204 | 25.56° C | 31% | 1008.7 hPa | 0 mm | - | 0 W/m² | - |
| 1777876302 | 25.56° C | 29% | 1008.4 hPa | 0 mm | - | 0 W/m² | - |
| 1777875403 | 25.56° C | 27% | 1008.4 hPa | 0 mm | - | 0 W/m² | - |
| 1777874497 | 25.56° C | 26% | 1008.8 hPa | 0 mm | - | 0 W/m² | - |
| 1777873595 | 25.56° C | 25% | 1009 hPa | 0 mm | - | 0 W/m² | - |
* Rain latest hour (hover to see other rain measurements)
** Current wind speed in m/s (hover to see current wind gust speed)